Regional Weather Roundup
Issued by NWS

Home | Current Version | Previous Version | Text Only | Print | Product List | Glossary Off
Versions: 1 2 3 4 5 6 7 8 9 10 11 12 13 14 15 16 17 18 19 20 21 22 23 24 25 26 27 28 29 30 31 32 33 34 35 36 37 38 39 40 41 42 43 44 45 46 47 48 49

000
ASUS45 KBOU 070807
RWRCO

WEATHER ROUNDUP FOR COLORADO
NATIONAL WEATHER SERVICE DENVER/BOULDER CO
100 AM MST SUN FEB 07 2016

NOTE: "FAIR" INDICATES FEW OR NO CLOUDS BELOW 12000 FEET WITH NO
SIGNIFICANT WEATHER AND/OR OBSTRUCTIONS TO VISIBILITY.

COZ001>005-013-030-031-070900-
...NORTHWEST COLORADO...

CITY           SKY/WX    TMP DP  RH WIND       PRES   REMARKS
CRAIG          CLOUDY    11   5  77 CALM      30.40F
HAYDEN         CLOUDY    16   9  73 NE7       30.37F WCI   6
MEEKER         CLOUDY    16  10  77 CALM      30.40S
MOUNT WERNER   NOT AVBL
STEAMBOAT SPGS CLOUDY    11   8  85 CALM      30.36F
WALDEN         CLOUDY    27  12  54 SW8G17    30.27F WCI  18
$$

COZ006>008-011-070900-
...WEST CENTRAL VALLEYS...

CITY           SKY/WX    TMP DP  RH WIND       PRES   REMARKS
GRAND JUNCTION CLOUDY    11   9  92 CALM      30.50F
MONTROSE       CLOUDY    10   4  76 SE3       30.50R
EAGLE          CLOUDY    12  10  92 CALM      30.45S
RIFLE          CLOUDY    15   8  73 CALM      30.48S
DELTA          CLOUDY    19  15  84 CALM      30.50S
NUCLA          CLOUDY    18  12  79 E7        30.49S WCI   8
$$

COZ017>023-064>068-070900-
...SOUTHWEST COLORADO...

CITY           SKY/WX    TMP DP  RH WIND       PRES   REMARKS
DURANGO        CLOUDY     7   4  87 NE5       30.39F WCI  -2
CORTEZ         CLOUDY    13   9  84 E6        30.42F WCI   4
PAGOSA SPRINGS CLOUDY     8   3  83 CALM      30.38S
TELLURIDE      CLOUDY    22  14  70 SE5       30.42F WCI  16
WOLF CREEK PAS CLOUDY    21   3  45 CALM      30.41F
$$

COZ009-010-012-014-032>034-037-058>063-070900-
...CENTRAL COLORADO...

CITY           SKY/WX    TMP DP  RH WIND       PRES   REMARKS
ASPEN          CLOUDY    13   8  81 S6        30.38S WCI   4
BUENA VISTA    CLOUDY    16   9  72 NE5       30.26F WCI   9
COPPER MTN     CLOUDY    19  10  68 NW13      30.33  WCI   7
BERTHOUD PASS  MOCLDY    12   1  62 NW33G45   30.26F WCI -10
COTTONWOOD PAS CLOUDY    34   5  29 W10G33    30.26S WCI  26
GUNNISON       CLOUDY   -11 N/A N/A CALM      30.48S
KREMMLING      CLOUDY    -2  -8  78 CALM      30.39F
LEADVILLE      CLOUDY    21   5  50 NE6G21    30.31F WCI  13
MONARCH PASS     N/A     12   9  85 MISG      30.39F
SALIDA         NOT AVBL
SUNLIGHT       CLOUDY    19  14  79 CALM        N/A
WILKERSON PASS CLOUDY    23  -2  33 MISG      30.20F
$$

COZ069>075-070900-
...SAN LUIS VALLEY/SANGRE DE CRISTO MOUNTAINS...

CITY           SKY/WX    TMP DP  RH WIND       PRES   REMARKS
ALAMOSA        CLOUDY     4  -1  80 NW3       30.35F
LA VETA PASS   CLOUDY    16   9  73 MISG      30.25F
SAGUACHE       CLOUDY    12   5  73 NW8       30.34F WCI   1
$$

COZ035-036-038>040-070900-
...NORTHERN COLORADO FRONT RANGE...

CITY           SKY/WX    TMP DP  RH WIND       PRES   REMARKS
DENVER INTL AP CLOUDY    39  11  31 SW6       30.11S
DMNS CITY PARK   N/A     49   4  16 W23G33    30.10F
AURORA         MOCLDY    37  10  32 W5        30.12F
FRONT RANGE AP   N/A     37  12  35 SW12      30.12S
ERIE MUNI ARPT CLOUDY    36  14  39 W3        30.11S
BOULDER MUN AP CLOUDY    46   5  18 N5        30.09S
CENTENNIAL     CLOUDY    46   5  18 W22G30    30.12R
BROOMFIELD     CLOUDY    43  12  28 NW10      30.13R
FORT COLLINS   CLOUDY    43  12  28 SE10      30.10S
LONGMONT       CLOUDY    49   4  16 SW9G17    30.12R
$$

COZ041-046-047-076>085-087-088-070900-
...PIKES PEAK/PALMER DIVIDE AND SOUTHERN FOOTHILLS...

CITY           SKY/WX    TMP DP  RH WIND       PRES   REMARKS
COLO. SPRINGS  CLOUDY    31  11  43 N8        30.13F WCI  23
A. F. ACADEMY  CLOUDY    41   6  23 N12G17    30.13S
SCHRIEVER AFB  PTSUNNY   42   9  26 NW15G23   30.13F
ELLICOTT       NOT AVBL
FALCON         CLOUDY    35   9  34 NW5       30.15F WCI  31
FORT CARSON    PTCLDY    31  12  46 E6        30.10F WCI  25
LIMON          CLOUDY    32  18  56 W14       30.09F WCI  22
MONUMENT HILL  CLOUDY    32   7  34 W7        30.17R WCI  26
TRINIDAD       CLOUDY    32  17  54 W15       30.16F WCI  22
$$

COZ042>045-048>051-090-091-070900-
...NORTHEAST COLORADO...

CITY           SKY/WX    TMP DP  RH WIND       PRES   REMARKS
GREELEY ARPT   CLOUDY    36  16  44 NE3       30.10F
AKRON          CLOUDY    30  22  72 N16       30.11R WCI  19
BURLINGTON     CLOUDY    34  22  61 NW7       30.14R WCI  28
WRAY           CLOUDY    35  24  63 N15       30.12S WCI  26
STERLING       CLOUDY    32  25  74 N13       30.13S WCI  22
HOLYOKE        CLOUDY    34  25  69 N12       30.13R WCI  25
FORT MORGAN    CLOUDY    34  21  58 NE14      30.12S WCI  25
$$

COZ086-089-092>099-070900-
...SOUTHEAST COLORADO...

CITY           SKY/WX    TMP DP  RH WIND       PRES   REMARKS
PUEBLO         CLOUDY    42  18  37 W9        30.10F
LA JUNTA       CLOUDY    35  24  64 W8        30.11R WCI  29
LAMAR          CLOUDY    26  22  84 NW3       30.10R
SPRINGFIELD      N/A     38  21  50 W15       30.08F
$$




USA.gov is the U.S. government's official web portal to all federal, state and local government web resources and services.